SCP
0 0 0 0 0 0 1 1 1 1 1 1 1 1 1 1 2 1 1 1 1 1 2 1 2 2 2 2 1 1 2 3 4 5 5 4 2 1 1 1 1 1 1 1
0 0 0 0 0 0 1 1 1 1 0 0 0 0 1 1 1 1 1 1 1 2 3 3 2 2 2 2 2 1 2 3 4 5 5 4 2 1 1 1 1 1 1 1
0 0 0 0 0 0 0 1 1 1 1 0 0 0 0 1 1 1 1 2 2 3 4 5 4 4 3 3 2 2 1 3 4 6 5 3 2 1 1 1 1 1 1 1
0 0 0 0 0 0 0 1 1 1 1 0 0 0 0 0 1 1 1 2 3 3 4 6 6 5 4 3 2 2 1 2 4 5 5 3 2 1 1 1 1 1 1 2
0 0 0 0 0 0 0 1 1 1 0 0 0 0 0 0 1 1 1 3 4 3 4 6 7 7 5 3 2 2 2 3 4 5 4 3 2 1 1 1 1 2 1 1
0 0 0 0 0 0 0 0 0 0 0 0 0 0 0 0 1 1 1 2 3 3 4 6 8 7 6 4 2 2 2 3 4 4 4 3 2 1 1 1 1 1 1 1
0 0 0 0 0 0 0 0 0 0 0 0 0 0 0 1 1 1 1 1 2 2 3 6 8 8 6 4 3 2 3 4 4 4 3 2 1 1 1 1 1 1 1 1
0 0 0 0 0 0 0 0 0 0 0 0 0 0 0 1 1 1 1 1 2 2 3 6 8 7 6 4 4 3 3 3 3 3 3 2 1 1 1 1 1 1 1 1
0 0 0 0 0 0 0 0 0 0 0 0 0 0 0 1 1 1 1 1 2 2 2 5 7 6 5 5 4 3 3 2 2 2 2 1 1 1 1 1 1 1 1 1
0 0 0 0 0 0 0 0 0 0 0 0 0 1 1 1 1 1 1 2 2 1 3 5 7 6 6 5 4 3 3 2 2 1 1 1 1 1 1 1 1 1 1 1
0 0 0 0 0 0 0 0 0 0 0 0 0 1 1 1 1 1 1 2 1 2 4 6 7 6 6 5 4 3 3 3 2 2 1 1 1 1 1 1 1 1 1 1
0 0 0 0 0 0 0 0 0 0 0 0 1 1 2 2 1 1 1 1 2 2 4 6 6 6 5 4 4 4 4 4 3 2 2 2 1 1 1 1 1 1 1 1
0 0 0 0 0 0 0 0 0 0 0 0 1 2 2 2 2 2 2 2 2 3 3 4 5 4 4 3 3 4 5 5 4 3 3 2 2 1 1 1 1 2 2 2
0 0 0 0 0 0 0 0 0 0 0 1 2 2 2 2 2 2 2 2 2 2 3 3 3 3 3 3 3 3 4 4 4 4 3 3 2 1 1 1 1 2 2 2
0 0 0 0 0 0 0 0 0 0 0 1 2 2 2 2 2 2 2 2 2 2 2 3 3 3 3 3 3 3 3 3 3 3 3 2 2 2 2 1 2 2 2 2
0 0 0 0 0 0 0 0 0 0 0 1 1 1 1 1 2 2 2 2 3 3 3 3 4 4 3 3 4 4 3 3 3 3 2 2 2 2 2 2 2 2 2 2
0 0 0 0 0 0 0 0 0 0 0 1 1 1 1 1 2 2 2 2 2 3 3 4 6 5 4 4 5 6 5 4 3 2 2 3 3 3 3 2 2 3 3 3
0 0 0 0 0 0 0 0 0 0 0 0 1 1 1 2 2 2 2 2 2 3 3 5 6 6 4 3 5 7 7 6 4 4 3 4 4 5 5 5 4 5 5 5
0 0 0 0 0 0 0 0 1 0 0 0 1 1 1 2 2 2 1 1 2 2 3 4 6 6 4 3 5 8 10 9 7 6 5 5 6 6 7 7 7 7 6 6
0 0 0 0 0 0 0 0 1 0 0 0 1 1 1 1 1 1 1 1 1 2 2 3 5 5 4 3 5 8 11 11 9 7 6 6 6 6 7 7 7 8 7 7
0 0 0 0 0 0 0 1 1 0 0 1 1 1 1 1 1 1 1 1 2 2 2 3 4 4 3 2 3 6 8 8 6 5 5 5 5 5 4 4 5 7 7 7
0 0 0 0 0 0 0 1 1 0 0 1 1 1 1 1 1 1 1 2 2 3 3 3 4 4 3 2 2 2 3 3 3 4 4 4 4 4 3 3 4 4 5 6
0 0 0 0 0 0 0 1 1 1 1 1 1 1 1 1 1 1 1 2 2 2 2 3 3 3 3 2 2 2 2 3 3 4 4 4 4 3 3 3 3 3 3 3
0 0 0 0 0 0 0 1 1 1 1 1 1 1 1 1 1 1 2 2 3 2 2 2 3 3 3 3 3 3 3 3 4 4 4 4 4 3 3 3 3 3 3 2
0 0 0 0 0 0 0 1 1 1 1 1 1 1 1 1 1 2 2 3 3 3 3 3 2 3 3 3 3 3 3 4 4 4 4 4 4 3 3 3 3 2 2 2
0 0 0 0 0 0 0 1 1 1 1 1 1 1 1 1 1 2 3 4 4 4 3 3 2 3 3 3 3 3 3 3 4 4 4 4 4 3 3 3 2 2 2 1
Wind_Speed
2 3 3 6 6 4 3 2 3 4 2 3 2 3 3 3 5 6 6 7 8 8 6 4 5 5 5 4 5 5 5 4 3 2 2 1 1 0 0 0 1 1 1 1
3 4 7 3 2 2 2 1 2 2 1 3 1 2 2 3 6 6 8 8 9 7 4 5 5 6 6 6 6 5 5 4 3 2 2 2 2 1 1 0 1 0 1 1
5 6 2 2 0 1 2 4 4 2 2 3 2 4 3 3 3 4 5 6 7 9 8 7 7 7 7 7 7 7 6 5 4 3 2 2 2 2 1 1 1 1 0 1
4 4 1 1 3 3 4 4 4 3 3 1 1 2 5 3 3 5 6 6 7 8 8 8 8 7 7 7 6 6 5 5 4 4 4 3 3 2 1 1 0 1 1 1
5 3 2 4 5 5 5 1 2 2 3 2 2 1 7 2 4 8 8 7 8 8 9 9 9 8 7 6 7 6 6 5 4 4 5 4 3 2 1 1 1 1 1 1
5 3 4 5 3 4 3 5 5 5 5 1 2 2 6 4 6 6 5 6 7 7 7 7 6 6 5 5 5 6 7 5 5 5 4 5 4 3 3 2 1 0 0 1
4 4 2 2 1 2 4 6 4 4 4 4 2 2 8 6 5 6 5 5 5 6 6 6 7 7 6 7 7 6 7 6 5 5 4 4 4 4 4 3 2 1 0 0
2 6 4 2 5 5 3 8 7 5 5 4 1 4 7 5 4 3 3 3 3 5 5 6 7 7 7 7 7 7 7 6 6 5 5 4 4 3 2 3 2 2 2 2
6 6 4 2 2 7 5 3 5 7 2 0 4 5 7 3 4 3 2 1 3 4 5 5 5 6 6 6 7 8 7 6 5 5 5 4 4 3 3 2 2 2 1 1
8 4 4 2 4 4 4 8 6 6 5 2 4 3 5 5 5 3 2 2 2 2 3 5 6 6 6 5 5 6 6 6 5 4 4 4 4 4 3 2 2 2 1 1
5 5 3 2 2 3 3 4 5 5 5 6 3 6 5 6 4 3 3 2 1 2 4 5 5 5 5 5 5 5 5 5 4 5 4 3 3 3 3 3 3 3 2 2
3 6 2 4 3 2 4 6 7 5 3 4 4 7 4 3 3 2 3 2 1 2 3 4 5 5 5 5 5 5 5 5 5 4 4 4 3 3 3 3 3 3 2 2
5 6 2 5 5 2 1 2 3 5 5 5 4 7 3 2 2 1 2 1 0 1 2 3 4 4 5 5 4 4 4 5 4 4 4 3 3 3 3 3 3 3 3 2
6 5 6 8 7 3 1 1 3 5 4 4 6 7 5 4 3 3 1 1 1 1 2 3 3 3 4 4 4 4 4 4 4 4 4 4 4 4 4 3 3 2 2 2
5 3 2 3 2 3 2 2 3 4 6 7 6 6 7 4 3 2 0 1 2 1 1 2 2 2 2 3 3 3 3 3 4 4 4 4 4 3 3 2 2 2 2 2
4 3 1 1 1 2 1 1 2 2 2 3 2 4 4 2 1 1 1 1 2 1 2 2 2 3 3 3 3 3 3 4 4 4 4 3 3 3 3 2 2 2 1 1
2 4 3 2 2 3 1 3 2 2 1 3 4 5 2 1 1 2 1 1 2 2 2 3 3 3 3 3 3 4 3 3 3 3 3 2 2 2 2 2 2 2 2 1
5 5 4 2 2 3 6 1 2 3 1 2 2 2 2 2 2 1 1 2 2 1 1 2 2 2 1 2 2 2 2 2 2 2 2 2 2 3 3 2 2 2 2 1
4 7 5 4 2 3 4 2 2 2 1 1 2 1 0 1 2 2 1 0 1 1 2 2 2 2 2 2 2 3 3 2 2 2 2 3 3 3 3 3 3 2 2 2
5 5 6 4 4 5 6 3 1 3 2 2 1 2 1 2 1 4 3 1 1 1 1 1 2 2 3 2 3 3 2 2 2 3 3 3 3 3 3 3 3 2 2 2
3 4 4 4 3 6 5 4 2 3 5 2 2 2 2 2 4 3 1 1 1 1 1 2 3 2 1 2 3 3 2 2 2 1 1 1 2 2 2 2 1 1 1 1
3 3 3 4 3 6 3 2 4 5 2 0 1 1 1 1 1 0 0 1 1 1 2 2 3 2 1 2 3 2 1 1 0 1 1 1 0 1 1 1 1 1 1 1
3 5 5 6 6 4 1 2 2 3 1 1 1 0 1 1 1 1 0 1 1 1 2 2 3 3 1 1 2 2 1 0 1 2 1 0 0 0 1 2 2 1 1 1
2 1 2 1 3 3 2 1 0 2 2 1 1 1 2 1 1 0 0 0 1 1 1 2 3 3 1 0 0 1 1 1 2 1 1 1 1 1 0 1 2 2 2 2
3 1 1 2 3 2 3 2 1 1 2 2 2 1 1 2 1 1 0 1 1 0 1 2 2 2 2 1 0 0 1 2 1 1 1 1 1 1 1 1 2 3 4 4
3 5 5 5 5 3 3 2 1 1 1 1 1 2 1 1 2 1 1 1 1 1 1 1 1 1 1 1 1 1 1 2 2 1 1 1 1 1 1 1 1 2 2 3
Wind_Direction
84 80 224 224 202 200 186 181 247 257 223 137 204 239 236 193 187 197 194 195 208 217 216 195 190 180 169 169 172 174 171 171 155 148 149 146 168 159 66 96 155 161 147 134
42 266 242 225 187 161 167 182 257 298 88 130 146 289 263 211 214 208 204 207 213 212 199 195 190 184 180 183 184 179 179 172 172 173 157 145 140 137 138 58 73 123 148 147
196 244 219 158 211 191 241 197 213 209 30 56 78 329 285 257 236 236 221 211 212 206 202 202 198 193 184 188 187 186 181 169 168 151 116 98 82 58 38 25 16 348 87 111
231 255 177 196 243 174 264 232 196 167 113 312 102 280 288 269 266 247 241 220 214 210 203 201 199 196 192 193 184 174 167 158 159 149 146 149 154 174 210 204 233 6 25 51
240 215 189 226 229 177 225 135 126 127 127 68 22 173 285 316 267 256 244 229 218 209 204 201 199 195 191 182 172 166 152 149 154 155 160 158 161 176 143 103 82 39 19 18
242 237 202 214 220 173 150 71 59 52 71 25 254 176 280 249 234 256 249 235 221 209 203 197 188 174 173 168 161 154 146 149 157 158 162 164 164 157 138 135 146 166 345 355
309 301 260 181 107 49 95 90 37 5 14 257 250 188 253 256 246 238 241 237 218 201 192 184 175 175 176 173 167 157 153 156 159 159 168 172 174 168 167 170 175 175 202 273
213 284 260 200 178 179 168 142 156 191 217 268 304 229 257 273 283 271 247 236 211 197 188 184 179 178 179 177 165 159 161 162 162 165 173 173 170 172 174 175 178 187 207 224
183 250 282 238 177 143 139 157 159 132 143 267 281 287 303 314 328 331 334 267 215 201 184 172 163 165 170 171 170 168 167 169 174 177 172 167 167 170 175 174 174 190 210 213
164 225 284 292 70 43 129 140 103 118 145 233 285 279 265 282 287 298 298 272 250 190 172 163 162 164 165 165 161 155 162 171 171 174 183 178 173 171 171 162 175 192 204 214
144 166 297 20 138 185 102 97 104 114 148 159 228 267 236 231 239 251 266 279 260 181 175 168 162 158 151 147 151 151 156 161 173 177 175 171 171 166 169 183 196 199 206 204
144 129 225 261 261 197 156 159 146 150 199 169 175 260 285 233 239 230 255 281 288 168 159 153 151 146 147 155 155 157 156 164 178 178 169 174 171 166 182 201 208 203 208 215
134 116 93 336 337 4 90 138 144 126 119 148 169 259 317 355 350 290 249 279 348 97 122 130 136 151 155 160 158 161 166 167 160 157 160 167 178 188 199 208 211 209 212 224
115 111 157 193 216 205 191 159 144 127 142 183 214 243 294 321 314 308 306 318 41 80 111 116 130 153 160 161 162 168 175 169 156 152 161 178 199 207 209 206 208 216 221 224
97 127 190 220 215 163 167 167 157 168 179 180 217 223 255 268 259 275 299 112 102 83 100 127 141 147 151 155 166 173 176 171 165 165 176 189 197 196 192 193 206 212 221 232
70 122 113 352 26 127 89 43 158 183 173 191 201 249 267 291 37 11 334 152 149 156 166 159 158 159 164 175 182 177 180 181 172 173 189 192 181 184 193 192 194 209 223 235
96 119 112 238 309 63 298 253 189 174 191 172 207 240 263 8 318 254 237 196 195 193 185 178 184 191 181 185 188 193 189 171 173 181 188 187 184 186 203 200 191 219 231 234
142 120 126 137 86 212 239 246 150 143 174 200 212 235 201 208 248 283 226 200 216 204 205 195 177 186 179 163 162 160 146 153 169 184 195 187 183 193 196 189 193 233 241 234
150 134 119 123 158 265 287 269 175 166 247 245 182 232 300 58 55 347 314 216 227 204 183 179 161 145 127 125 134 128 129 150 170 194 208 208 197 194 193 196 200 214 219 242
64 91 113 125 152 220 242 272 252 124 266 262 181 192 168 79 57 278 300 38 59 69 99 110 95 90 94 107 118 117 137 162 198 216 216 209 196 191 194 203 209 216 211 230
44 56 108 145 188 250 260 288 94 149 243 254 212 221 203 202 213 236 288 31 103 110 113 110 103 95 104 118 117 120 136 209 241 229 167 171 183 190 195 203 216 207 200 213
172 147 167 144 172 246 288 92 152 210 250 166 194 223 197 263 321 40 120 97 98 90 98 109 106 87 70 110 124 123 183 244 90 101 106 119 209 218 172 170 201 183 175 199
191 187 181 184 207 240 271 199 207 160 142 160 140 7 110 52 341 335 356 94 83 97 122 123 120 104 72 96 131 141 234 110 107 109 125 161 205 267 187 185 188 187 200 212
280 126 132 244 265 275 290 302 55 141 143 144 130 126 117 134 171 319 342 38 95 100 122 121 116 118 128 294 156 176 185 136 123 133 166 181 185 235 266 228 207 204 210 220
246 165 144 250 271 322 323 328 340 44 58 55 34 38 144 136 147 165 197 232 205 171 130 123 134 154 185 198 261 271 166 137 134 158 185 201 215 224 240 251 241 230 224 217
218 191 181 218 220 193 245 277 311 60 27 55 38 353 351 138 165 168 201 222 184 168 145 138 153 172 202 179 227 262 214 165 159 189 222 233 238 237 233 250 304 307 265 248